| time (UTC) | temp F | wind direction | speed knots | gust knots | rain 1hr in | rain 24hr in | rain mn in | humidity % | barometer mb |
| 20260505061505 | 58 | 223 | 0.0 | 4.3 | 0.00 | 0.00 | 0.00 | 74 | 1012.5 |
| 20260505061005 | 59 | 220 | 0.0 | 4.3 | 0.00 | 0.00 | 0.00 | 75 | 1012.5 |
| 20260505060505 | 59 | 215 | 0.0 | 2.6 | 0.00 | 0.00 | 0.00 | 73 | 1012.5 |
| 20260505060005 | 59 | 240 | 0.0 | 4.3 | 0.00 | 0.00 | 0.00 | 73 | 1011.5 |
| 20260505055505 | 59 | 237 | 1.7 | 4.3 | 0.00 | 0.00 | 0.00 | 73 | 1011.5 |
| 20260505055006 | 60 | 236 | 0.0 | 4.3 | 0.00 | 0.00 | 0.00 | 72 | 1011.5 |
| 20260505054004 | 60 | 215 | 0.0 | 2.6 | 0.00 | 0.00 | 0.00 | 72 | 1011.5 |
| 20260505053504 | 61 | 215 | 0.0 | 2.6 | 0.00 | 0.00 | 0.00 | 71 | 1011.5 |
| 20260505052505 | 62 | 260 | 0.0 | 1.7 | 0.00 | 0.00 | 0.00 | 71 | 1011.5 |
| 20260505051505 | 62 | 238 | 0.0 | 0.0 | 0.00 | 0.00 | 0.00 | 71 | 1011.5 |
| 20260505050506 | 63 | 237 | 0.0 | 0.0 | 0.00 | 0.00 | 0.00 | 70 | 1011.5 |
| 20260505041505 | 65 | 215 | 0.0 | 1.7 | 0.00 | 0.00 | 0.00 | 71 | 1010.5 |
| 20260505041005 | 65 | 221 | 0.0 | 1.7 | 0.00 | 0.00 | 0.00 | 70 | 1010.5 |
| 20260505040505 | 65 | 218 | 0.0 | 1.7 | 0.00 | 0.00 | 0.00 | 70 | 1010.5 |
| 20260505035504 | 66 | 223 | 0.0 | 2.6 | 0.00 | 0.00 | 0.00 | 70 | 1010.5 |
| 20260505035008 | 66 | 215 | 0.0 | 2.6 | 0.00 | 0.00 | 0.00 | 70 | 1010.5 |
| 20260505034505 | 66 | 215 | 0.0 | 0.0 | 0.00 | 0.00 | 0.00 | 70 | 1010.5 |
| 20260505034006 | 66 | 228 | 0.0 | 0.0 | 0.00 | 0.00 | 0.00 | 69 | 1010.5 |
| 20260505033504 | 66 | 198 | 0.0 | 0.0 | 0.00 | 0.00 | 0.00 | 69 | 1010.5 |
| 20260505032505 | 67 | 215 | 0.0 | 0.0 | 0.00 | 0.00 | 0.00 | 69 | 1010.5 |
| 20260505032005 | 67 | 215 | 0.0 | 7.0 | 0.00 | 0.00 | 0.00 | 68 | 1010.5 |
| 20260505031504 | 67 | 215 | 0.0 | 7.0 | 0.00 | 0.00 | 0.00 | 68 | 1010.5 |
| 20260505031004 | 67 | 145 | 0.9 | 5.2 | 0.00 | 0.00 | 0.00 | 68 | 1010.5 |
| 20260505030005 | 67 | 215 | 0.0 | 7.0 | 0.00 | 0.00 | 0.00 | 67 | 1009.5 |
| 20260505025505 | 68 | 129 | 0.9 | 5.2 | 0.00 | 0.00 | 0.00 | 67 | 1009.5 |
| 20260505025005 | 68 | 188 | 0.0 | 5.2 | 0.00 | 0.00 | 0.00 | 67 | 1009.5 |
| 20260505024006 | 68 | 200 | 0.0 | 1.7 | 0.00 | 0.00 | 0.00 | 66 | 1010.5 |
| 20260505023504 | 68 | 192 | 0.0 | 4.3 | 0.00 | 0.00 | 0.00 | 67 | 1010.5 |
| 20260505023005 | 68 | 185 | 0.9 | 4.3 | 0.00 | 0.00 | 0.00 | 66 | 1009.5 |
| 20260505022504 | 68 | 248 | 0.0 | 0.0 | 0.00 | 0.00 | 0.00 | 65 | 1009.5 |
| 20260505022004 | 68 | 237 | 0.0 | 0.0 | 0.00 | 0.00 | 0.00 | 65 | 1009.5 |
| 20260505021505 | 68 | 224 | 0.0 | 0.0 | 0.00 | 0.00 | 0.00 | 65 | 1009.5 |
| 20260505021004 | 68 | 216 | 0.0 | 0.0 | 0.00 | 0.00 | 0.00 | 65 | 1009.5 |
| 20260505015504 | 69 | 224 | 0.0 | 2.6 | 0.00 | 0.00 | 0.00 | 64 | 1009.5 |
| 20260505014504 | 69 | 193 | 0.0 | 6.1 | 0.00 | 0.00 | 0.00 | 63 | 1010.5 |
| 20260505013004 | 69 | 150 | 1.7 | 7.8 | 0.00 | 0.00 | 0.00 | 63 | 1010.5 |
| 20260505012504 | 69 | 151 | 0.0 | 6.1 | 0.00 | 0.00 | 0.00 | 63 | 1010.5 |
| 20260505012004 | 69 | 242 | 0.0 | 4.3 | 0.00 | 0.00 | 0.00 | 63 | 1010.5 |
| 20260505011504 | 69 | 191 | 2.6 | 4.3 | 0.00 | 0.00 | 0.00 | 63 | 1010.5 |
| 20260505011004 | 69 | 226 | 0.9 | 6.1 | 0.00 | 0.00 | 0.00 | 62 | 1010.5 |
| 20260505010504 | 70 | 206 | 0.9 | 6.1 | 0.00 | 0.00 | 0.00 | 62 | 1010.5 |
| 20260505005504 | 70 | 140 | 0.9 | 5.2 | 0.00 | 0.00 | 0.00 | 62 | 1010.5 |
| 20260505005004 | 70 | 182 | 0.9 | 7.0 | 0.00 | 0.00 | 0.00 | 62 | 1010.5 |
| 20260505004504 | 70 | 165 | 0.0 | 7.0 | 0.00 | 0.00 | 0.00 | 61 | 1010.5 |
| 20260505003504 | 70 | 221 | 0.9 | 7.0 | 0.00 | 0.00 | 0.00 | 61 | 1010.5 |
| 20260505002505 | 70 | 170 | 0.9 | 2.6 | 0.00 | 0.00 | 0.00 | 60 | 1010.5 |
| 20260505001505 | 71 | 203 | 0.9 | 7.0 | 0.00 | 0.00 | 0.00 | 61 | 1010.5 |
| 20260505001004 | 70 | 151 | 0.9 | 4.3 | 0.00 | 0.00 | 0.00 | 61 | 1010.5 |
| 20260505000504 | 70 | 136 | 0.0 | 1.7 | 0.00 | 0.00 | 0.00 | 60 | 1010.5 |
| 20260505000004 | 70 | 258 | 0.0 | 4.3 | 0.00 | 0.00 | 0.00 | 60 | 1010.5 |
| 20260504235505 | 70 | 192 | 0.0 | 5.2 | 0.00 | 0.00 | 0.00 | 60 | 1010.5 |
| 20260504235004 | 70 | 136 | 0.9 | 7.0 | 0.00 | 0.00 | 0.00 | 59 | 1010.5 |
| 20260504234504 | 71 | 144 | 2.6 | 7.0 | 0.00 | 0.00 | 0.00 | 60 | 1010.5 |
| 20260504234004 | 70 | 299 | 0.0 | 4.3 | 0.00 | 0.00 | 0.00 | 60 | 1010.5 |
| 20260504233504 | 70 | 220 | 0.0 | 7.0 | 0.00 | 0.00 | 0.00 | 59 | 1010.5 |
| 20260504233004 | 70 | 178 | 0.9 | 7.0 | 0.00 | 0.00 | 0.00 | 59 | 1010.5 |
| 20260504232504 | 71 | 193 | 0.9 | 7.0 | 0.00 | 0.00 | 0.00 | 59 | 1010.5 |
| 20260504232004 | 71 | 222 | 0.9 | 7.0 | 0.00 | 0.00 | 0.00 | 59 | 1010.5 |
| 20260504231504 | 70 | 179 | 0.9 | 7.0 | 0.00 | 0.00 | 0.00 | 59 | 1010.5 |
| 20260504231004 | 70 | 136 | 3.5 | 7.0 | 0.00 | 0.00 | 0.00 | 59 | 1010.5 |
| 20260504230504 | 70 | 143 | 2.6 | 7.0 | 0.00 | 0.00 | 0.00 | 59 | 1010.5 |
| 20260504230004 | 70 | 221 | 0.0 | 5.2 | 0.00 | 0.00 | 0.00 | 59 | 1010.5 |
| 20260504225504 | 70 | 179 | 0.9 | 5.2 | 0.00 | 0.00 | 0.00 | 59 | 1010.5 |
| 20260504225004 | 70 | 123 | 1.7 | 5.2 | 0.00 | 0.00 | 0.00 | 59 | 1010.5 |
| 20260504224504 | 70 | 187 | 0.0 | 5.2 | 0.00 | 0.00 | 0.00 | 59 | 1010.5 |
| 20260504224004 | 70 | 222 | 0.0 | 6.1 | 0.00 | 0.00 | 0.00 | 59 | 1010.5 |
| 20260504223504 | 70 | 111 | 1.7 | 7.8 | 0.00 | 0.00 | 0.00 | 60 | 1010.5 |
| 20260504223004 | 70 | 188 | 2.6 | 7.8 | 0.00 | 0.00 | 0.00 | 60 | 1010.5 |
| 20260504222504 | 70 | 242 | 0.0 | 1.7 | 0.00 | 0.00 | 0.00 | 60 | 1010.5 |
| 20260504222005 | 70 | 257 | 0.0 | 1.7 | 0.00 | 0.00 | 0.00 | 60 | 1010.5 |
| 20260504221504 | 70 | 224 | 0.0 | 6.1 | 0.00 | 0.00 | 0.00 | 61 | 1010.5 |
| 20260504221004 | 69 | 236 | 0.9 | 6.1 | 0.00 | 0.00 | 0.00 | 62 | 1010.5 |
| 20260504220504 | 69 | 207 | 0.0 | 6.1 | 0.00 | 0.00 | 0.00 | 61 | 1010.5 |
| 20260504215504 | 69 | 198 | 0.0 | 7.0 | 0.00 | 0.00 | 0.00 | 61 | 1011.5 |
| 20260504215004 | 69 | 204 | 0.0 | 5.2 | 0.00 | 0.00 | 0.00 | 62 | 1011.5 |
| 20260504214504 | 68 | 215 | 0.9 | 1.7 | 0.00 | 0.00 | 0.00 | 64 | 1011.5 |
| 20260504214004 | 68 | 215 | 0.0 | 6.1 | 0.00 | 0.00 | 0.00 | 62 | 1011.5 |
| 20260504213503 | 68 | 222 | 1.7 | 7.0 | 0.00 | 0.00 | 0.00 | 63 | 1011.5 |
| 20260504212504 | 68 | 176 | 0.9 | 4.3 | 0.00 | 0.00 | 0.00 | 65 | 1011.5 |
| 20260504212004 | 67 | 257 | 0.0 | 1.7 | 0.00 | 0.00 | 0.00 | 64 | 1011.5 |
| 20260504211504 | 68 | 203 | 0.0 | 1.7 | 0.00 | 0.00 | 0.00 | 65 | 1012.5 |
| 20260504211004 | 67 | 211 | 0.0 | 1.7 | 0.00 | 0.00 | 0.00 | 67 | 1012.5 |
| 20260504210504 | 66 | 246 | 0.0 | 6.1 | 0.00 | 0.00 | 0.00 | 66 | 1012.5 |
| 20260504210004 | 66 | 155 | 0.0 | 6.1 | 0.00 | 0.00 | 0.00 | 69 | 1012.5 |
| 20260504205004 | 65 | 159 | 3.5 | 7.8 | 0.00 | 0.00 | 0.00 | 67 | 1012.5 |
| 20260504204503 | 65 | 198 | 1.7 | 10.4 | 0.00 | 0.00 | 0.00 | 67 | 1012.5 |
| 20260504203004 | 65 | 139 | 2.6 | 10.4 | 0.00 | 0.00 | 0.00 | 68 | 1012.5 |
| 20260504202505 | 65 | 216 | 2.6 | 10.4 | 0.00 | 0.00 | 0.00 | 69 | 1012.5 |
| 20260504202003 | 65 | 219 | 0.9 | 4.3 | 0.00 | 0.00 | 0.00 | 71 | 1012.5 |
| 20260504201504 | 64 | 250 | 0.0 | 5.2 | 0.00 | 0.00 | 0.00 | 70 | 1012.5 |
| 20260504200503 | 64 | 249 | 0.0 | 6.1 | 0.00 | 0.00 | 0.00 | 71 | 1012.5 |
| 20260504200004 | 63 | 191 | 0.9 | 6.1 | 0.00 | 0.00 | 0.00 | 71 | 1012.5 |
| 20260504195504 | 63 | 183 | 0.9 | 7.0 | 0.00 | 0.00 | 0.00 | 71 | 1012.5 |
| 20260504195004 | 63 | 267 | 2.6 | 7.0 | 0.00 | 0.00 | 0.00 | 72 | 1012.5 |
| 20260504194503 | 63 | 218 | 0.9 | 6.1 | 0.00 | 0.00 | 0.00 | 72 | 1012.5 |
| 20260504194004 | 63 | 218 | 0.0 | 7.8 | 0.00 | 0.00 | 0.00 | 73 | 1012.5 |
| 20260504193503 | 62 | 228 | 0.0 | 10.4 | 0.00 | 0.00 | 0.00 | 73 | 1012.5 |
| 20260504193007 | 62 | 181 | 5.2 | 10.4 | 0.00 | 0.00 | 0.00 | 73 | 1012.5 |
| 20260504192006 | 61 | 139 | 2.6 | 7.0 | 0.00 | 0.00 | 0.00 | 74 | 1012.5 |
| 20260504191507 | 61 | 290 | 0.0 | 8.7 | 0.00 | 0.00 | 0.00 | 74 | 1012.5 |
| 20260504191007 | 61 | 148 | 4.3 | 8.7 | 0.00 | 0.00 | 0.00 | 75 | 1012.5 |
| 20260504190007 | 60 | 221 | 1.7 | 7.0 | 0.00 | 0.00 | 0.00 | 75 | 1012.5 |
| 20260504185507 | 59 | 180 | 0.9 | 7.0 | 0.00 | 0.00 | 0.00 | 76 | 1012.5 |
| 20260504185007 | 60 | 215 | 0.9 | 7.0 | 0.00 | 0.00 | 0.00 | 76 | 1012.5 |
| 20260504184507 | 59 | 207 | 0.0 | 6.1 | 0.00 | 0.00 | 0.00 | 78 | 1012.5 |
| 20260504184007 | 59 | 188 | 0.9 | 6.1 | 0.00 | 0.00 | 0.00 | 78 | 1012.5 |
| 20260504183507 | 59 | 195 | 2.6 | 8.7 | 0.00 | 0.00 | 0.00 | 78 | 1012.5 |
| 20260504182507 | 58 | 105 | 0.0 | 5.2 | 0.00 | 0.00 | 0.00 | 79 | 1012.5 |
| 20260504182006 | 58 | 188 | 1.7 | 5.2 | 0.00 | 0.00 | 0.00 | 79 | 1012.5 |
| 20260504181506 | 58 | 242 | 0.9 | 5.2 | 0.00 | 0.00 | 0.00 | 79 | 1011.5 |
| 20260504180506 | 58 | 252 | 0.0 | 2.6 | 0.00 | 0.00 | 0.00 | 80 | 1011.5 |
| 20260504180006 | 57 | 249 | 0.0 | 7.0 | 0.00 | 0.00 | 0.00 | 80 | 1012.5 |
| 20260504175506 | 57 | 217 | 1.7 | 7.0 | 0.00 | 0.00 | 0.00 | 80 | 1012.5 |
| 20260504175006 | 57 | 214 | 0.9 | 10.4 | 0.00 | 0.00 | 0.00 | 81 | 1012.5 |
| 20260504174507 | 57 | 204 | 2.6 | 10.4 | 0.00 | 0.00 | 0.00 | 81 | 1012.5 |
| 20260504174006 | 57 | 197 | 0.9 | 5.2 | 0.00 | 0.00 | 0.00 | 81 | 1012.5 |
| 20260504173506 | 57 | 215 | 0.0 | 5.2 | 0.00 | 0.00 | 0.00 | 82 | 1012.5 |
| 20260504173007 | 57 | 149 | 0.0 | 7.0 | 0.00 | 0.00 | 0.00 | 82 | 1012.5 |
| 20260504172506 | 57 | 219 | 0.0 | 7.0 | 0.00 | 0.00 | 0.00 | 82 | 1012.5 |
| 20260504172008 | 56 | 161 | 1.7 | 10.4 | 0.00 | 0.00 | 0.00 | 83 | 1012.5 |
| 20260504171507 | 56 | 191 | 1.7 | 10.4 | 0.00 | 0.00 | 0.00 | 82 | 1011.5 |
| 20260504171007 | 56 | 160 | 1.7 | 5.2 | 0.00 | 0.00 | 0.00 | 83 | 1011.5 |
| 20260504170506 | 56 | 222 | 0.9 | 5.2 | 0.00 | 0.00 | 0.00 | 83 | 1011.5 |
| 20260504151006 | 54 | 167 | 1.7 | 10.4 | 0.00 | 0.00 | 0.00 | 86 | 1012.5 |
| 20260504150506 | 53 | 230 | 2.6 | 6.1 | 0.00 | 0.00 | 0.00 | 86 | 1012.5 |
| 20260504141006 | 53 | 225 | 0.9 | 5.2 | 0.00 | 0.00 | 0.00 | 88 | 1011.5 |
| 20260504130506 | 53 | 206 | 2.6 | 7.0 | 0.00 | 0.00 | 0.00 | 87 | 1010.5 |
| 20260504110506 | 58 | 222 | 4.3 | 7.8 | 0.00 | 0.00 | 0.00 | 72 | 1009.5 |
| 20260504081505 | 68 | 305 | 0.0 | 0.0 | 0.00 | 0.00 | 0.00 | 43 | 1008.5 |
| 20260504081006 | 68 | 305 | 0.0 | 0.0 | 0.00 | 0.00 | 0.00 | 43 | 1008.5 |